Vorticity
12 14 20 24 22 17 30 37 1 19 22 13 17 12 35 -26 -16 40 21 -7 7 5 -6 -1 6 6 7 8 9 6 10 10 7 6 8 7 7 6 6 3 5 8 8
12 12 22 21 19 5 33 35 15 -11 23 9 -6 39 -39 21 76 13 59 14 -1 36 -6 6 2 7 5 8 14 11 10 2 2 10 10 8 6 5 4 5 2 6 8
11 13 19 24 16 10 31 43 24 5 18 11 14 14 26 27 -18 -12 12 30 34 5 -1 11 -6 1 8 8 11 11 7 6 5 2 9 9 7 6 5 5 3 2 5
10 12 14 23 16 9 39 1 44 -11 24 13 15 4 12 1 38 27 -4 13 13 21 -7 28 -10 7 1 10 12 13 11 7 5 5 5 8 7 7 5 5 5 2 3
13 13 8 20 23 11 8 28 22 12 6 7 10 13 13 29 31 -17 -18 12 25 -3 -9 29 -9 5 -6 11 9 12 17 12 7 6 7 7 7 7 5 6 4 6 3
19 12 11 3 21 32 3 9 19 58 16 3 2 9 1 17 13 30 15 21 20 11 25 23 12 -13 6 -2 6 9 12 18 13 7 8 8 9 7 7 6 5 6 2
12 14 8 19 -12 27 5 20 3 41 8 9 14 8 -4 7 27 34 12 22 28 16 25 4 9 -3 2 5 2 4 12 10 16 8 10 10 10 9 6 6 7 6 7
7 14 10 18 13 3 -3 34 12 10 23 1 13 9 21 7 13 9 11 19 11 28 32 27 24 24 -3 -0 -2 -2 2 10 14 11 10 10 9 8 10 10 8 11 11
12 7 11 12 22 6 -0 -11 45 16 14 7 11 14 5 -7 30 -23 25 13 -26 10 24 9 71 1 -4 7 1 23 6 9 12 13 12 12 12 10 7 7 6 8 4
20 13 8 12 12 21 16 -0 -1 21 10 8 15 9 16 5 -9 29 10 22 17 16 -3 7 -4 -1 35 -16 39 15 10 -0 7 12 12 11 9 10 6 7 8 5 9
20 21 15 8 10 13 15 27 2 -4 16 16 7 12 23 2 13 -2 16 -15 -13 25 -0 20 8 2 39 -48 39 16 7 -14 20 5 9 11 10 13 11 8 8 5 5
15 18 18 16 10 7 15 12 24 15 14 6 4 26 12 17 12 6 8 12 3 8 17 11 -1 23 -4 5 21 58 4 16 -28 24 4 9 10 10 9 8 9 9 9
11 14 17 17 18 13 6 12 9 10 6 33 5 -8 9 20 20 -7 25 12 6 4 -6 12 6 15 -8 3 -14 6 35 62 -11 13 14 6 8 7 8 11 14 8 8
9 11 14 16 16 16 17 9 8 11 10 11 22 12 5 -5 1 30 12 7 11 20 11 8 21 -4 17 10 2 -3 -7 -0 54 -23 31 8 5 8 7 4 9 9 9
9 9 11 13 15 16 15 17 16 11 9 10 10 11 26 23 14 2 -10 19 22 7 5 28 -21 16 15 3 17 -21 30 1 3 15 3 20 -1 22 4 5 4 6 7
9 9 10 11 12 12 14 15 16 15 18 12 8 7 11 12 18 11 15 11 -5 9 32 21 15 18 -1 20 14 9 5 -2 20 20 -23 27 3 32 -4 14 2 5 6
8 9 9 11 12 12 12 11 13 15 14 13 19 19 11 8 12 12 17 7 24 27 7 -8 20 25 -11 -4 39 22 -4 8 -2 8 9 3 9 42 40 5 20 7 2
8 9 8 10 12 12 11 12 12 11 11 13 14 13 16 20 17 12 13 10 9 10 21 22 31 18 11 18 3 13 -1 6 13 -10 18 8 11 -3 -4 20 8 17 20
9 9 10 10 12 12 11 11 10 11 12 12 11 13 13 13 14 21 23 12 14 16 10 11 19 20 30 12 27 5 19 34 16 -5 24 4 10 4 7 -3 2 14 9
9 10 11 12 12 12 11 11 11 11 11 11 13 12 12 13 12 11 15 19 21 13 15 14 13 17 21 18 31 14 12 18 27 15 -0 14 14 -9 14 7 -1 13 17
10 10 13 13 13 12 11 10 11 10 10 10 10 12 13 11 14 15 14 14 16 19 15 14 16 14 15 16 19 25 26 18 19 29 22 33 28 18 6 -7 9 3 -5
11 13 15 14 14 12 12 11 10 10 10 10 10 11 12 12 11 13 16 15 15 17 16 17 13 14 15 17 14 15 19 22 28 21 25 19 34 24 23 16 1 6 15
15 16 14 13 12 13 12 10 10 10 9 9 10 11 11 11 11 11 13 15 15 16 16 14 19 14 13 13 16 15 13 14 15 22 18 24 24 33 32 30 25 14 10
16 14 14 13 13 13 12 11 10 9 9 9 10 10 10 11 11 11 13 14 15 15 16 15 12 19 16 15 15 16 16 14 14 13 18 15 15 22 29 27 29 38 42
15 15 15 14 13 13 11 11 10 10 10 9 9 10 11 12 11 12 13 15 15 15 16 17 14 12 19 14 12 16 18 16 16 13 11 14 16 14 18 25 27 23 25
14 13 13 13 12 12 12 11 11 11 11 11 11 11 12 12 13 11 11 11 11 12 13 15 17 15 16 17 16 11 12 16 17 16 15 15 14 13 13 11 13 16 18
Height
2890 2884 2879 2875 2873 2873 2875 2883 2889 2898 2913 2923 2935 2947 2961 2972 2971 2982 2994 3003 3014 3024 3034 3044 3053 3062 3068 3076 3084 3092 3097 3102 3109 3115 3120 3126 3129 3134 3139 3145 3148 3151 3153
2887 2881 2877 2873 2870 2871 2874 2880 2887 2896 2902 2917 2929 2940 2951 2961 2970 2973 2984 2992 3004 3012 3024 3033 3043 3054 3059 3067 3075 3082 3089 3096 3100 3108 3113 3119 3123 3127 3132 3138 3142 3145 3148
2885 2880 2876 2872 2869 2871 2875 2881 2888 2894 2899 2913 2924 2934 2944 2954 2961 2969 2977 2986 2995 3004 3015 3025 3035 3046 3052 3058 3066 3073 3080 3087 3093 3099 3106 3111 3115 3119 3124 3129 3133 3138 3140
2884 2879 2876 2872 2870 2872 2874 2882 2883 2890 2898 2909 2921 2930 2939 2951 2957 2965 2972 2979 2987 2996 3006 3016 3026 3038 3046 3052 3059 3065 3072 3079 3085 3090 3096 3102 3107 3112 3116 3121 3126 3128 3134
2884 2880 2875 2873 2872 2873 2876 2877 2884 2891 2897 2906 2916 2925 2930 2938 2947 2959 2965 2972 2979 2987 2996 3005 3016 3027 3038 3045 3051 3057 3063 3070 3075 3080 3087 3093 3098 3103 3108 3114 3117 3122 3127
2884 2880 2876 2875 2875 2873 2878 2879 2881 2886 2896 2904 2912 2919 2927 2937 2941 2952 2962 2967 2972 2979 2985 2996 3006 3016 3027 3035 3043 3049 3054 3062 3066 3072 3079 3085 3091 3097 3101 3106 3110 3114 3118
2885 2881 2877 2876 2877 2875 2878 2879 2876 2881 2892 2901 2908 2915 2920 2927 2937 2949 2960 2963 2966 2973 2979 2988 2996 3005 3018 3025 3034 3040 3044 3051 3055 3063 3068 3076 3084 3090 3098 3096 3102 3107 3112
2885 2882 2879 2877 2878 2879 2880 2881 2882 2881 2890 2899 2905 2912 2920 2927 2934 2944 2952 2959 2962 2968 2973 2981 2988 2996 3006 3017 3025 3029 3035 3040 3045 3051 3056 3067 3075 3083 3085 3092 3097 3100 3101
2885 2883 2880 2879 2877 2879 2881 2882 2884 2887 2892 2897 2903 2910 2917 2923 2926 2937 2945 2955 2956 2963 2968 2974 2978 2986 2995 3007 3014 3016 3027 3030 3037 3042 3049 3056 3064 3070 3074 3077 3077 3083 3088
2885 2884 2882 2880 2878 2878 2881 2884 2886 2891 2895 2898 2902 2906 2911 2918 2926 2933 2937 2942 2950 2956 2963 2968 2973 2979 2984 2994 3000 3007 3011 3020 3028 3034 3037 3044 3051 3057 3061 3065 3071 3071 3077
2884 2883 2882 2882 2881 2878 2880 2884 2887 2891 2895 2898 2900 2905 2907 2915 2923 2928 2933 2938 2944 2949 2954 2958 2965 2971 2975 2980 2990 2994 3003 3014 3017 3024 3029 3035 3040 3047 3050 3053 3057 3061 3065
2884 2882 2881 2881 2881 2882 2879 2882 2887 2890 2891 2895 2899 2904 2908 2913 2916 2921 2927 2930 2938 2942 2948 2952 2957 2964 2970 2975 2980 2988 2995 3001 3006 3011 3016 3020 3026 3033 3037 3043 3047 3053 3056
2885 2882 2880 2880 2880 2880 2881 2880 2883 2886 2890 2893 2896 2899 2901 2904 2907 2911 2919 2925 2931 2935 2939 2946 2951 2955 2962 2967 2971 2978 2983 2988 2993 2999 3004 3010 3015 3024 3028 3032 3037 3041 3042
2884 2882 2880 2878 2878 2878 2878 2879 2880 2883 2885 2888 2892 2894 2897 2900 2904 2907 2910 2914 2920 2924 2929 2935 2940 2946 2951 2956 2963 2968 2972 2977 2982 2987 2992 3000 3007 3009 3012 3019 3023 3027 3030
2884 2881 2879 2878 2877 2876 2876 2876 2877 2879 2881 2884 2886 2889 2892 2894 2897 2900 2904 2908 2910 2913 2917 2923 2927 2932 2938 2944 2949 2954 2960 2964 2969 2974 2979 2983 2987 2993 2998 3006 3009 3012 3013
2881 2880 2878 2876 2874 2874 2874 2874 2874 2874 2875 2877 2879 2880 2882 2885 2888 2891 2893 2895 2899 2904 2909 2912 2918 2922 2928 2932 2937 2942 2945 2951 2955 2960 2964 2968 2973 2978 2983 2989 2995 2996 3000
2877 2876 2875 2874 2872 2871 2870 2870 2872 2872 2871 2871 2872 2874 2876 2876 2878 2881 2883 2886 2891 2895 2898 2901 2906 2910 2915 2921 2924 2926 2933 2937 2939 2944 2950 2955 2960 2963 2968 2972 2978 2983 2987
2874 2872 2870 2870 2869 2868 2867 2867 2867 2868 2868 2869 2869 2869 2869 2871 2873 2875 2877 2880 2880 2882 2885 2890 2894 2899 2903 2905 2909 2912 2917 2921 2924 2930 2935 2940 2945 2950 2954 2958 2963 2967 2972
2871 2869 2867 2865 2864 2864 2864 2864 2863 2863 2863 2864 2866 2866 2865 2865 2866 2867 2869 2871 2873 2874 2875 2877 2880 2883 2889 2892 2894 2899 2903 2906 2910 2913 2919 2923 2929 2935 2939 2943 2948 2952 2957
2866 2864 2863 2861 2860 2859 2859 2859 2859 2859 2859 2858 2860 2862 2861 2862 2861 2860 2861 2863 2863 2864 2865 2867 2869 2871 2874 2877 2881 2884 2887 2889 2893 2897 2900 2907 2911 2916 2922 2927 2931 2936 2940
2860 2859 2858 2856 2855 2855 2854 2854 2855 2855 2855 2855 2855 2855 2855 2855 2855 2854 2854 2855 2855 2856 2857 2858 2860 2860 2863 2866 2867 2871 2875 2878 2881 2882 2884 2889 2893 2897 2904 2908 2914 2919 2924
2855 2854 2853 2852 2851 2851 2850 2850 2850 2850 2850 2850 2850 2850 2849 2849 2849 2849 2848 2848 2847 2848 2849 2851 2851 2852 2854 2856 2859 2860 2862 2864 2867 2869 2872 2875 2876 2879 2882 2889 2894 2900 2906
2850 2849 2848 2847 2847 2847 2846 2846 2846 2846 2846 2845 2845 2845 2844 2843 2842 2842 2843 2843 2843 2843 2843 2842 2843 2845 2848 2849 2851 2851 2852 2852 2854 2856 2860 2862 2861 2866 2867 2871 2874 2879 2887
2845 2844 2843 2843 2842 2842 2842 2842 2842 2842 2841 2841 2841 2840 2840 2839 2838 2837 2837 2837 2837 2837 2837 2838 2838 2838 2839 2840 2840 2841 2843 2843 2844 2847 2848 2850 2854 2853 2855 2858 2861 2864 2868
2840 2840 2839 2839 2838 2838 2838 2838 2838 2838 2837 2837 2836 2835 2835 2834 2834 2833 2832 2831 2831 2831 2831 2831 2831 2831 2831 2831 2833 2834 2835 2837 2838 2838 2840 2841 2842 2844 2846 2849 2853 2856 2858
2836 2835 2835 2835 2834 2834 2834 2834 2834 2833 2833 2832 2831 2831 2830 2829 2829 2828 2827 2827 2826 2825 2825 2825 2824 2824 2824 2825 2826 2826 2826 2828 2829 2831 2833 2832 2835 2835 2837 2840 2845 2848 2851